Time,TemperatureF,DewpointF,PressureIn,WindDirection,WindDirectionDegrees,WindSpeedMPH,WindSpeedGustMPH,Humidity,HourlyPrecipIn,Conditions,Clouds,dailyrainin,SolarRadiationWatts/m^2,SoftwareType,DateUTC
2013-08-14 00:52:00,67.0,23.0,-100.00,NE,49,4.0,5.0,19,0.00,,,-99.99,0.000000,,2013-08-14 06:52:00,
2013-08-14 01:50:00,62.0,25.0,-100.00,NNW,334,4.0,6.0,24,0.00,,,-99.99,0.000000,,2013-08-14 07:50:00,
2013-08-14 02:21:00,62.0,25.0,-100.00,NNW,334,4.0,6.0,24,0.00,,,-99.99,0.000000,,2013-08-14 08:21:00,
2013-08-14 02:31:00,62.0,25.0,-100.00,NNW,334,4.0,6.0,24,0.00,,,-99.99,0.000000,,2013-08-14 08:31:00,
2013-08-14 02:41:00,62.0,25.0,-100.00,NNW,334,4.0,6.0,24,0.00,,,-99.99,0.000000,,2013-08-14 08:41:00,
2013-08-14 04:22:00,62.0,23.0,-100.00,ENE,74,3.0,6.0,22,0.00,,,-99.99,0.000000,,2013-08-14 10:22:00,
2013-08-14 06:50:00,55.0,34.0,-100.00,NW,313,4.0,6.0,45,0.00,,,-99.99,8.000000,,2013-08-14 12:50:00,
2013-08-14 07:21:00,55.0,34.0,-100.00,NW,313,4.0,6.0,45,0.00,,,-99.99,8.000000,,2013-08-14 13:21:00,
2013-08-14 07:31:00,55.0,34.0,-100.00,NW,313,4.0,6.0,45,0.00,,,-99.99,8.000000,,2013-08-14 13:31:00,
2013-08-14 07:41:00,55.0,34.0,-100.00,NW,313,4.0,6.0,45,0.00,,,-99.99,8.000000,,2013-08-14 13:41:00,
2013-08-14 08:52:00,73.0,33.0,-100.00,South,171,5.0,10.0,23,0.00,,,-99.99,398.000000,,2013-08-14 14:52:00,
2013-08-14 10:58:00,83.0,34.0,-100.00,NE,53,6.0,10.0,17,0.00,,,-99.99,794.000000,,2013-08-14 16:58:00,
2013-08-14 11:04:00,83.0,34.0,-100.00,NE,53,6.0,10.0,17,0.00,,,-99.99,794.000000,,2013-08-14 17:04:00,
2013-08-14 11:50:00,87.0,30.0,-100.00,SE,136,9.0,13.0,13,0.00,,,-99.99,994.000000,,2013-08-14 17:50:00,
2013-08-14 12:26:00,87.0,30.0,-100.00,SE,136,9.0,13.0,13,0.00,,,-99.99,994.000000,,2013-08-14 18:26:00,
2013-08-14 12:39:00,87.0,30.0,-100.00,SE,136,9.0,13.0,13,0.00,,,-99.99,994.000000,,2013-08-14 18:39:00,
2013-08-14 13:54:00,91.0,24.0,-100.00,SSW,209,6.0,13.0,9,0.00,,,-99.99,1103.000000,,2013-08-14 19:54:00,
2013-08-14 14:52:00,88.0,33.0,-100.00,WSW,247,3.0,6.0,14,0.00,,,-99.99,343.000000,,2013-08-14 20:52:00,
2013-08-14 15:23:00,93.0,29.0,-100.00,SSE,149,6.0,11.0,10,0.00,,,-99.99,1080.000000,,2013-08-14 21:23:00,
2013-08-14 18:23:00,93.0,26.0,-100.00,SE,138,5.0,8.0,9,0.00,,,-99.99,313.000000,,2013-08-15 00:23:00,
2013-08-14 21:50:00,68.0,37.0,-100.00,ENE,59,4.0,4.0,32,0.00,,,-99.99,0.000000,,2013-08-15 03:50:00,
2013-08-14 22:22:00,68.0,37.0,-100.00,ENE,59,4.0,4.0,32,0.00,,,-99.99,0.000000,,2013-08-15 04:22:00,
2013-08-14 22:32:00,68.0,37.0,-100.00,ENE,59,4.0,4.0,32,0.00,,,-99.99,0.000000,,2013-08-15 04:32:00,
2013-08-14 22:43:00,68.0,37.0,-100.00,ENE,59,4.0,4.0,32,0.00,,,-99.99,0.000000,,2013-08-15 04:43:00,